User: anonymous   Login
Location: Sunrise Point
(46.9200°N, 121.5900°W)
Time: 17:42:06
(UTC-08:00)
Language:

Cosmos 2058 - Orbit

View from above orbital plane
View from above orbital plane
View from above satellite
View from above satellite

Ground track
Ground track

The orbit data is extracted from the following two-line orbital elements,

1 20465U 90010A   16044.43564208  .00001486  00000-0  12653-3 0  9993
2 20465  82.4917 358.5759 0016746 138.8939 221.3548 14.97020183412059
Epoch (UTC): 13 February 2016 10:27:19
Eccentricity: 0.0016746
inclination: 82.4917°
perigee height: 564 km
apogee height: 588 km
right ascension of ascending node: 358.5759°
argument of perigee: 138.8939°
revolutions per day: 14.97020183
mean anomaly at epoch: 221.3548°
orbit number at epoch: 41205

The dashed part of the orbit path shows where the satellite is in the earth's shadow,  

DLR